Location: Chippewa Lake
(41.0698°N, 81.9010°W)
Time: 03:51:03
(UTC+00:00)

SL-8 Rocket - Pass Details

Date: 30 September 2021
Orbit: 958 x 990 km, 82.9° (Epoch: 17 October)

Event Time Altitude Azimuth Distance (km) Brightness Sun altitude
Rises 00:18:45 0° 169° (SSE) 3,670 6.8 -13.3°
Reaches altitude 10° 00:21:20 10° 164° (SSE) 2,730 6.1 -13.8°
Maximum altitude 00:27:19 50° 91° (E) 1,244 4.2 -14.9°
Drops below altitude 10° 00:33:23 10° 18° (NNE) 2,759 6.3 -16.0°
Sets 00:35:59 0° 13° (NNE) 3,712 7.0 -16.5°
